Regional Weather Roundup
Issued by NWS

Home | Current Version | Previous Version | Text Only | Print | Product List | Glossary Off
Versions: 1 2 3 4 5 6 7 8 9 10 11 12 13 14 15 16 17 18 19 20 21 22 23 24 25 26 27 28 29 30 31 32 33 34 35 36 37 38 39 40 41 42 43 44 45 46 47 48 49 50

000
ASUS43 KMKX 042011
RWRWI

WISCONSIN REGIONAL WEATHER ROUNDUP
NATIONAL WEATHER SERVICE MILWAUKEE/SULLIVAN WI
300 PM CDT FRI SEP 04 2015

NOTE: "FAIR" INDICATES FEW OR NO CLOUDS BELOW 12,000 FEET WITH NO
SIGNIFICANT WEATHER AND/OR OBSTRUCTIONS TO VISIBILITY.

WIZ001-002-006>008-014>016-023>028-042100-
NORTHWEST WISCONSIN

CITY           SKY/WX    TMP DP  RH WIND       PRES   REMARKS
SUPERIOR ARPT  SUNNY     66  61  83 NE10G23   29.97F
ASHLAND        SUNNY     78  69  73 N8        29.99F HX  80
HAYWARD        SUNNY     82  68  62 SE10      29.99F HX  85
SIREN          MOSUNNY   85  70  61 SE9       29.96S HX  89
CUMBERLAND     PTSUNNY   81  70  69 SE12      29.99S HX  84
RICE LAKE      MOSUNNY   83  71  65 SE12      30.00S HX  87
CHETEK         SUNNY     83  72  69 SE9       29.99S HX  89
LADYSMITH      SUNNY     83  67  56 SE8       30.03F HX  86
EAU CLAIRE     MOSUNNY   85  71  63 SE10      29.97F HX  90
MENOMONIE      SUNNY     87  71  59 SE13      29.97S HX  92
NEW RICHMOND   SUNNY     85  69  59 SE10G16   29.96S HX  89
OSCEOLA        SUNNY     85  71  62 E15       29.96F HX  91
$$

WIZ003>005-009-010-017-018-042100-
NORTH CENTRAL WISCONSIN

CITY           SKY/WX    TMP DP  RH WIND       PRES   REMARKS
MANITOWISH WTR MOSUNNY   81  65  57 SE10      30.05F HX  83
ARBOR VITAE    SUNNY     82  65  55 SE7       30.05F HX  84
WOODRUFF       SUNNY     82  65  55 SE7       30.05F HX  84
RHINELANDER    SUNNY     82  63  52 SE10      30.07S HX  83
EAGLE RIVER    SUNNY     81  59  47 SE9       30.06S HX  81
LAND O LAKES   SUNNY     82  60  47 E12G17    30.06F HX  82
PHILLIPS       SUNNY     82  66  58 SE7       30.03F HX  83
TOMAHAWK       MOSUNNY   81  65  58 E3        30.05F HX  82
MEDFORD        SUNNY     78  67  70 S8        30.05S
MERRILL        PTSUNNY   82  67  61 S7        30.05F HX  84
$$

WIZ029-030-035-036-043>047-042100-
CENTRAL WISCONSIN

CITY           SKY/WX    TMP DP  RH WIND       PRES   REMARKS
WAUSAU         MOSUNNY   81  65  58 E5        30.03F HX  83
MOSINEE        MOSUNNY   77  68  73 E3        30.06F
MARSHFIELD     SUNNY     79  64  60 E6        30.05S HX  81
STEVENS POINT  SUNNY     75  66  72 E6        30.05F
WAUPACA        SUNNY     79  67  67 CALM      30.05S HX  81
WAUTOMA        SUNNY     79  66  64 NE6       30.04F HX  81
WISC RAPIDS    SUNNY     79  64  60 VRB6      30.05F HX  81
CAMP DOUGLAS   PTSUNNY   81  73  78 E6        30.01F HX  85
$$

WIZ011>013-019>022-031-037>040-048>050-042100-
NORTHEAST WISCONSIN

CITY           SKY/WX    TMP DP  RH WIND       PRES   REMARKS
ANTIGO         SUNNY     80  64  58 E6        30.07S HX  81
SHAWANO        NOT AVBL
OCONTO         SUNNY     76  68  77 SE8       30.04S
STURGEON BAY   CLOUDY    72  64  78 N9        30.07S
GREEN BAY      PTSUNNY   78  67  68 NE7       30.04S HX  80
MANITOWOC      CLOUDY    69  66  90 MISG      30.05R
APPLETON       PTSUNNY   75  63  64 VRB3      30.04S
CLINTONVILLE   CLOUDY    77  66  69 SE3       30.04S
OSHKOSH        CLOUDY    73  65  75 NE6       30.05S
$$

WIZ032>034-041-042-053>061-042100-
SOUTHWEST WISCONSIN

CITY           SKY/WX    TMP DP  RH WIND       PRES   REMARKS
LA CROSSE      CLOUDY    88  72  58 E7        29.96F HX  94
SPARTA         SUNNY     86  69  56 SE5       29.99F HX  90
VIROQUA        PTSUNNY   85  71  63 SE7       30.01F HX  89
BOSCOBEL       PTSUNNY   90  72  55 VRB5      29.98S HX  97
PRAIRIE DU CHI SUNNY     87  66  50 S7        29.97S HX  89
PLATTEVILLE    SUNNY     86  71  61 S5        30.00F HX  91
$$

WIZ056-057-062-063-064-067-068-042100-
SOUTH CENTRAL WISCONSIN

CITY           SKY/WX    TMP DP  RH WIND       PRES   REMARKS
REEDSBURG      SUNNY     83  71  67 SE3       30.01S HX  88
BARABOO/DELLS  MOSUNNY   83  67  58 E3        30.02F HX  86
LONE ROCK      MOSUNNY   85  72  65 E6        29.99F HX  91
MINERAL POINT  MOSUNNY   88  70  55 CALM      30.01F HX  92
MADISON        MOSUNNY   83  69  62 CALM      30.01S HX  86
MIDDLETON      MOSUNNY   87  69  55 CALM      30.02S HX  90
WATERTOWN      MOSUNNY   80  70  70 CALM      30.02S HX  83
MONROE         MOSUNNY   86  70  58 CALM      30.01F HX  90
JANESVILLE     PTSUNNY   88  72  58 CALM      30.00F HX  94
$$

WIZ051-052-058>065-066-070>072-042100-
SOUTHEAST WISCONSIN

CITY           SKY/WX    TMP DP  RH WIND       PRES   REMARKS
MILWAUKEE      MOSUNNY   74  66  76 NE9       30.03S
WAUKESHA       MOSUNNY   79  64  61 CALM      30.04S HX  81
MILWAUKEE/TIMM MOSUNNY   79  63  57 CALM      30.03F HX  80
RACINE         PTSUNNY   75  65  70 NE9       30.05R
BURLINGTON     MOSUNNY   80  67  64 CALM      30.02S HX  82
KENOSHA        SUNNY     73  65  75 E10       30.04R
FOND DU LAC    CLOUDY    75  67  76 NE6       30.05S
SHEBOYGAN      PTSUNNY   75  67  76 N6        30.04S
WEST BEND      CLOUDY    73  64  73 CALM      30.05R
JUNEAU         MOSUNNY   79  67  66 N3        30.04S HX  81
$$

LSZ147-162-042100-
LAKE SUPERIOR

STATION/POSITION TIME  TEMP    WIND        PRES    WAVE
                       AIR SEA DIR/SP/G            HT/PER
                 (UTC) (F)     (DEG/KT/KT) (MB)    (FT/S)
W MID LAKE BUOY  1950   60 58   40/ 10/ 10 1016.6F   1
DEVILS ISLAND    2000   62      60/ 13/ 15 1015.9F
PORT WING        1900   56      20/ 17/ 19 1015.6F
SAXON HARBOR     1940   69        CALM     1014.9F
$$

LMZ867-665-643>646-042100-
LAKE MICHIGAN

STATION/POSITION TIME  TEMP    WIND        PRES    WAVE
                       AIR SEA DIR/SP/G            HT/PER
                 (UTC) (F)     (DEG/KT/KT) (MB)    (FT/S)
CHAMBERS ISLAND  1900   69     360/  9/ 10 1017.9S
S GREEN BAY BUOY 2000   68 67   50/ 12/ 16 1018.6
N MID LAKE BUOY  1950   68 67   10/  6/  8 1017.4F   2/10
NORTHPORT PIER   1900   74      70/  8/ 10 1017.6S
SISTER BAY       1941   75      10/ 10/ 11   N/A
ALGOMA LAKESHORE 1914           70/ 10/ 11   N/A
KEWAUNEE LAKESHO 1900   65      70/  3/  4 1016.7R
SHEBOYGAN LAKESH 2000   65      60/  4/  5 1017.2F
PORT WASHINGTON  1900   66      40/  4/  4 1017.6S
ATWATER BUOY     2000   62 60  340/  4/  6 1018.6R
MILWAUKEE LAKESH 1910   64      40/ 11/ 11   N/A
S MID LAKE BUOY  1950   69 71  340/  4/  8 1016.4F   1
KENOSHA   LAKESH 2000   69     130/  3/  5 1016.6S
$$

TC  - TEMPERATURE IN CELSIUS
VSB - VISIBILITY IN STATUTE MILES
WCI - WIND CHILL INDEX
HX  - HEAT INDEX




USA.gov is the U.S. government's official web portal to all federal, state and local government web resources and services.